Theta_e
318 319 318 319 321 323 324 325 326 326 326 327 326 326 326 326 324 319 312 319 321 330 326 317 315 317 316 314 320 317 308 307 307 305 307 310 310 311 314 312 317 320 318 323 331
318 319 319 319 319 321 322 324 325 326 326 326 326 326 326 325 317 311 322 328 330 328 317 313 310 315 309 311 317 311 307 305 313 312 309 311 311 311 312 312 313 318 324 327 331
318 318 318 319 319 320 321 323 324 324 325 326 325 325 325 324 306 301 326 329 329 329 319 316 315 312 306 309 311 310 307 309 311 313 312 311 310 313 312 310 314 314 319 325 328
316 317 318 319 319 319 320 322 323 323 324 325 325 324 324 319 289 314 327 330 329 325 318 313 311 306 304 303 309 304 309 309 312 313 311 309 312 310 313 314 315 319 321 325 326
314 315 316 318 318 318 319 320 322 322 323 324 324 323 320 305 302 318 324 324 322 319 314 310 307 306 301 303 305 306 306 311 311 312 312 311 310 311 311 317 317 317 322 323 325
314 314 316 316 317 317 318 320 321 321 322 323 324 323 313 297 314 318 320 319 319 317 314 312 308 309 304 302 303 303 306 307 309 311 311 310 312 311 314 316 314 317 318 322 324
313 314 315 315 315 317 318 319 319 320 321 320 323 319 308 304 319 322 320 318 319 317 313 314 314 308 307 302 306 305 300 304 307 308 309 310 307 307 316 314 313 315 318 321 324
313 314 314 315 315 316 317 318 318 318 319 320 321 315 301 314 319 316 317 317 319 319 316 317 317 312 307 308 305 301 300 294 302 306 308 309 298 308 314 314 314 315 316 319 322
311 313 314 314 315 315 316 316 317 317 317 319 314 310 301 313 308 313 316 314 317 318 319 317 316 309 307 301 297 299 293 294 296 304 305 305 299 305 308 309 312 315 316 317 320
310 311 312 314 315 315 315 315 315 314 314 314 311 303 306 302 307 311 315 318 314 314 313 311 310 303 303 298 289 292 292 294 294 297 301 301 301 303 306 306 306 308 312 315 316
310 310 311 312 314 315 312 308 301 300 305 299 300 302 302 307 311 308 312 314 313 309 300 307 299 294 297 299 297 295 295 293 296 299 298 298 299 302 306 307 306 307 308 308 310
310 310 310 311 313 315 309 300 301 302 294 302 302 303 306 308 300 305 313 305 304 297 302 300 294 298 301 300 297 295 293 293 296 297 296 297 296 300 302 303 305 306 307 308 310
309 310 310 311 311 311 304 302 307 307 294 295 299 299 302 305 300 301 308 305 300 297 298 294 296 301 298 298 296 296 292 292 292 295 297 295 293 296 300 302 304 304 306 307 308
309 309 310 310 303 307 301 306 310 307 286 288 293 297 301 304 298 306 310 305 302 296 297 296 300 298 297 295 297 291 298 296 294 292 287 295 284 293 294 296 299 302 304 304 306
309 309 309 309 304 300 303 306 307 302 274 288 293 304 301 299 299 300 311 305 297 297 298 293 296 295 294 295 298 293 298 296 296 292 292 291 288 290 294 293 296 299 302 305 307
308 308 308 306 305 305 308 304 301 283 274 284 293 293 294 296 297 301 302 306 303 298 299 297 300 299 297 298 299 298 296 295 294 293 284 289 288 288 291 293 296 299 300 302 303
308 308 307 306 298 306 306 297 282 277 285 284 287 291 291 290 293 296 295 293 291 286 287 293 294 297 299 295 298 297 292 284 282 282 281 287 287 289 294 295 296 298 300 302 303
307 308 305 305 307 307 299 284 276 280 281 289 290 290 285 290 290 293 292 289 295 293 289 285 284 294 298 295 293 293 292 283 277 278 281 286 283 288 296 298 298 298 299 300 301
306 304 300 302 306 304 289 278 279 281 285 287 289 285 285 288 289 289 290 289 293 295 287 287 286 295 296 298 297 292 288 293 284 279 281 285 289 292 296 296 297 298 298 299 300
300 296 297 303 303 295 285 281 283 287 286 290 283 286 283 285 285 287 287 292 291 296 296 290 285 291 295 298 298 295 297 285 287 279 277 282 284 286 290 293 296 297 299 299 300
295 287 296 301 300 287 281 282 285 288 290 286 284 283 285 285 287 286 286 290 294 294 297 292 289 287 292 291 290 290 289 290 291 287 280 279 284 291 293 295 294 297 298 299 299
290 282 296 299 283 284 282 284 286 286 289 288 288 286 285 286 286 286 286 289 294 295 290 295 290 284 287 293 295 296 292 291 285 283 286 285 285 294 294 294 295 297 298 299 299
288 287 296 292 279 278 281 282 285 285 286 286 285 287 287 285 281 286 285 292 294 292 291 293 287 281 283 288 292 290 293 294 293 291 285 282 285 296 297 295 296 296 298 297 297
290 281 288 288 284 282 280 278 280 287 285 286 285 288 286 284 287 284 286 290 293 293 294 293 288 285 280 283 288 286 290 293 291 285 286 286 289 294 294 294 296 298 298 298 297
287 283 286 280 281 283 283 281 278 279 286 287 283 284 283 280 282 282 286 288 291 293 291 288 284 287 288 289 289 287 288 290 288 290 286 288 290 293 296 297 298 299 298 297 297
285 285 286 282 284 283 283 281 280 281 284 282 282 284 285 281 283 281 284 285 285 289 288 289 282 283 280 285 286 285 289 289 290 289 290 291 291 298 299 300 299 298 298 298 298
290 291 289 284 282 281 281 281 282 285 285 286 286 284 284 286 289 290 291 290 290 287 286 286 284 281 278 283 282 279 286 288 289 290 289 286 293 298 298 298 299 299 299 299 301
Wind_Speed
13 13 11 9 9 10 9 8 8 7 7 6 4 2 3 5 7 2 5 3 4 7 6 7 4 7 3 1 1 2 3 2 3 5 3 7 8 4 1 3 4 5 2 5 12
13 12 13 11 9 8 10 8 8 8 8 7 5 2 3 5 3 7 3 8 8 7 4 4 4 7 3 2 2 4 4 3 1 3 3 8 9 9 6 7 6 6 6 6 13
13 11 12 12 9 10 7 7 6 6 8 7 5 3 4 4 4 1 4 7 6 7 2 2 1 2 4 2 4 3 8 5 5 4 3 6 7 6 8 8 10 11 10 12 14
9 11 11 12 10 9 9 7 6 6 6 8 6 4 1 2 5 1 6 6 3 5 7 2 3 3 4 5 3 6 5 3 1 4 4 4 3 6 12 7 1 6 4 13 16
5 8 11 11 10 8 8 8 6 6 6 8 7 6 3 3 6 1 3 4 5 5 7 6 6 5 7 3 3 4 3 5 1 2 4 2 7 7 11 12 2 6 7 12 13
6 6 9 10 10 10 9 8 5 3 2 5 9 6 2 5 2 3 3 1 4 3 4 5 4 2 3 2 7 2 4 0 2 4 3 6 5 3 8 7 9 7 10 11 14
11 10 9 9 10 10 8 7 7 3 2 2 9 5 5 8 2 3 1 1 2 2 3 1 0 4 4 3 2 2 3 5 7 4 4 4 11 14 10 5 12 12 9 9 12
11 13 11 9 10 10 9 7 6 4 4 5 7 1 5 2 6 5 1 1 1 3 0 1 0 1 2 2 2 3 2 8 5 8 3 8 20 14 15 12 13 15 12 9 12
12 9 11 11 10 11 10 8 6 5 4 6 3 3 3 4 4 8 4 2 3 3 2 4 1 1 3 6 4 3 9 9 7 9 7 14 15 11 7 10 18 16 12 12 13
11 13 11 12 12 12 11 7 6 5 5 5 3 3 2 5 3 3 8 4 2 6 5 4 3 6 6 11 12 9 9 7 10 2 7 13 19 12 5 7 15 15 16 16 15
11 12 12 11 15 16 9 5 5 4 6 5 3 4 2 1 3 4 8 6 4 4 8 7 8 17 18 20 7 5 11 9 3 2 5 16 20 20 17 15 15 13 13 16 18
14 13 14 11 14 16 9 4 10 2 6 11 5 5 2 1 3 5 10 10 9 11 7 5 18 13 7 10 11 10 9 9 6 2 4 12 18 18 20 19 21 22 21 20 16
16 14 14 13 12 10 11 14 4 3 2 4 13 8 3 2 3 10 16 9 9 13 16 15 2 10 12 10 13 14 16 11 9 4 6 11 24 22 17 23 22 20 20 20 20
17 16 15 13 5 8 8 11 7 3 3 6 9 9 8 4 6 6 14 9 6 15 11 13 13 9 13 17 13 14 10 10 9 6 8 2 14 16 4 10 12 16 17 20 23
17 16 17 18 5 10 7 5 5 1 6 7 10 5 16 12 6 9 9 8 10 9 9 7 7 16 11 8 14 5 8 10 11 11 10 16 11 7 2 10 13 16 20 19 17
18 17 19 11 2 8 13 1 3 8 9 6 9 14 18 20 7 4 8 4 4 9 9 10 1 11 10 6 14 10 9 5 3 4 9 16 14 14 14 11 11 13 12 11 11
19 17 16 7 8 10 11 5 6 8 3 9 11 13 20 15 22 10 13 14 11 8 12 6 12 4 5 9 6 14 13 4 5 6 10 4 13 22 5 8 11 13 10 6 6
20 15 10 6 11 16 8 2 8 2 5 5 11 14 15 14 18 21 13 13 19 14 7 12 9 17 12 11 7 16 16 6 9 7 4 3 14 9 5 11 13 14 15 12 12
19 8 7 8 14 10 7 8 5 6 6 13 17 13 10 13 7 20 23 19 15 16 13 9 12 4 7 8 15 10 16 10 2 3 4 8 10 10 11 13 15 13 10 11 10
7 3 5 12 9 6 7 9 5 3 2 8 6 4 11 14 13 16 16 13 10 20 4 2 5 2 12 9 13 13 10 6 6 7 10 11 11 12 4 9 14 17 13 9 7
5 4 3 15 7 2 5 3 4 2 3 1 3 5 5 9 15 12 11 13 20 13 20 3 4 4 4 13 16 9 6 6 7 10 7 8 9 2 10 11 10 6 7 6 6
5 2 2 9 4 2 4 6 2 4 4 6 4 3 4 4 6 8 14 6 4 16 16 14 6 6 9 2 10 20 19 15 9 11 11 14 18 4 1 3 4 7 5 1 3
4 3 8 5 4 3 2 4 4 2 3 2 3 2 1 5 2 8 7 6 5 2 10 11 8 13 12 5 8 11 20 20 21 10 17 13 17 7 14 10 7 9 6 3 2
5 4 3 3 2 7 4 2 3 2 3 3 2 2 1 2 2 3 3 3 3 4 6 7 10 13 18 19 13 12 21 24 22 16 22 19 30 21 12 11 15 15 12 4 4
4 2 1 5 1 5 5 6 5 5 1 4 2 7 4 2 3 5 5 3 5 6 1 4 5 8 20 20 17 15 18 22 27 29 24 26 29 28 22 20 17 8 4 5 8
5 5 3 2 9 7 4 3 4 3 6 4 7 4 11 11 14 5 6 7 9 2 5 10 6 12 19 15 15 23 22 19 18 19 24 29 29 26 20 16 16 14 16 14 15
1 2 4 5 5 6 4 5 7 9 7 5 6 5 7 14 10 10 6 4 4 4 9 5 4 3 6 6 12 8 14 22 23 25 25 27 32 29 27 21 16 15 12 16 18
Wind_Direction
261 244 249 255 269 278 277 286 271 229 229 239 233 273 326 331 308 253 255 331 305 330 311 316 312 339 301 308 19 267 250 226 203 189 136 154 190 165 92 198 201 195 291 93 141
258 253 245 247 250 267 280 288 294 246 219 223 228 269 302 327 283 257 304 310 294 341 344 22 338 342 245 208 176 239 254 212 270 227 217 182 208 168 188 197 213 220 170 143 156
263 248 238 245 243 249 265 274 288 290 229 213 217 209 286 308 272 201 320 295 276 235 310 300 267 306 240 248 184 176 239 202 195 220 247 196 208 192 203 213 226 219 197 172 174
287 258 246 240 234 247 251 258 264 283 268 213 192 193 231 259 252 126 344 337 194 210 200 209 199 192 230 217 174 217 225 230 122 178 173 202 164 210 222 211 146 217 176 170 186
300 285 255 245 246 255 263 254 253 264 276 210 176 180 171 207 255 242 345 36 92 155 192 185 195 166 208 217 192 237 212 196 124 193 233 173 217 229 234 234 211 170 168 192 197
215 265 254 244 244 246 248 241 229 228 273 233 173 168 186 227 345 319 292 346 93 135 182 178 220 222 185 198 227 13 261 201 185 211 237 240 225 205 236 216 219 214 198 204 205
233 218 234 233 240 242 236 221 206 194 80 52 184 158 197 240 80 60 330 311 127 155 182 238 259 227 157 174 200 73 264 253 212 196 228 212 247 231 229 207 219 221 223 214 215
248 229 206 218 225 230 231 216 193 167 127 109 170 173 227 274 237 295 17 315 136 134 196 172 179 115 269 127 91 161 254 239 174 191 195 201 249 235 235 222 232 228 225 228 227
252 242 239 197 214 213 225 217 181 166 159 129 125 208 227 330 214 235 223 211 166 114 122 124 211 166 169 186 176 194 231 224 269 209 203 208 253 241 244 237 245 240 233 227 235
231 237 231 222 201 198 211 202 141 112 111 105 63 213 201 217 182 211 188 180 189 151 115 147 178 202 192 200 213 203 213 220 230 166 236 234 247 250 226 240 246 251 245 245 239
217 231 232 237 217 192 171 133 164 191 203 203 168 251 98 201 133 196 179 165 161 196 182 175 206 211 202 208 234 261 221 230 232 225 245 242 252 257 255 246 253 248 247 249 246
213 210 218 235 238 167 138 202 185 143 187 233 243 288 285 280 162 199 172 177 191 197 167 176 230 230 231 201 207 221 225 227 266 214 232 278 269 263 260 251 248 250 252 251 249
208 203 206 222 230 166 173 202 205 196 169 192 217 222 231 198 227 186 185 187 194 194 197 212 167 197 190 201 206 220 230 226 252 323 239 293 277 257 243 243 245 241 246 252 251
203 197 198 207 228 173 178 199 189 216 225 214 195 221 190 208 252 174 201 189 191 208 197 235 233 187 201 215 206 227 216 224 237 261 261 345 283 273 238 241 230 243 240 242 243
193 192 196 186 144 186 148 186 189 146 213 184 167 141 170 194 132 197 187 209 200 173 187 201 185 199 208 219 195 219 174 203 223 234 276 241 267 254 246 257 257 240 237 236 240
185 187 192 198 185 145 137 21 193 177 207 148 148 172 166 193 175 120 180 208 223 212 226 241 120 214 209 170 187 144 129 105 123 226 250 237 223 252 236 239 247 259 254 252 243
181 187 179 165 182 145 119 146 214 218 138 158 171 171 187 185 198 178 184 193 188 194 213 197 215 181 177 167 180 183 175 166 209 207 249 27 209 252 268 255 242 265 261 242 246
176 179 170 180 148 148 136 193 236 124 183 158 159 160 190 180 211 204 193 204 214 217 204 213 219 202 187 200 178 197 193 195 215 204 268 159 230 254 261 269 269 258 262 282 272
162 162 146 151 158 149 156 205 178 195 164 148 146 163 177 188 191 207 221 220 209 207 216 206 231 173 206 181 170 181 218 213 331 90 269 230 252 265 234 240 247 257 256 258 266
126 111 163 161 127 127 183 207 188 273 157 169 133 162 177 180 192 188 204 219 214 205 213 181 257 173 191 191 224 197 166 180 219 226 239 247 263 253 242 226 234 250 253 259 272
76 113 231 151 119 158 173 137 154 307 38 83 102 118 163 171 191 193 194 220 197 206 208 140 248 117 157 201 186 189 197 229 214 224 241 268 253 300 256 258 267 270 255 242 275
88 156 103 135 116 122 144 144 25 48 354 63 90 102 153 165 157 206 218 226 240 220 209 209 238 225 200 352 282 211 205 192 205 198 238 267 260 104 298 272 264 268 281 291 289
94 89 80 37 111 108 66 75 97 111 49 103 82 303 319 185 185 189 184 293 308 264 225 200 229 246 242 229 229 233 231 219 231 254 235 233 257 233 225 241 257 273 277 318 244
115 109 77 104 167 108 126 55 81 16 126 124 107 146 128 157 210 188 259 228 104 238 294 303 233 221 237 242 234 215 225 224 223 231 243 239 261 245 246 243 253 256 267 258 274
33 77 29 166 181 110 125 147 144 173 79 174 215 230 219 263 212 237 228 191 208 200 185 339 287 245 256 265 268 261 254 229 230 232 233 241 247 257 250 251 248 294 284 232 229
122 143 117 75 123 108 142 187 137 175 177 193 231 271 225 221 223 239 257 212 242 188 229 161 261 319 301 263 269 258 246 249 237 253 254 257 259 264 263 269 266 244 252 264 263
67 50 79 94 130 168 200 190 187 156 202 187 174 229 230 235 238 254 257 271 283 216 221 176 218 233 265 357 320 281 257 243 247 252 254 250 250 263 267 261 253 252 255 253 258